Time,TemperatureF,DewpointF,PressureIn,WindDirection,WindDirectionDegrees,WindSpeedMPH,WindSpeedGustMPH,Humidity,HourlyPrecipIn,Conditions,Clouds,dailyrainin,SoftwareType,DateUTC
2013-04-16 00:01:00,40.2,39.0,30.38,East,86,0.0,0.0,95,0.00,,,0.00,oem by Ross Wheeler,2013-04-16 04:01:00,
2013-04-16 00:05:00,40.2,39.0,30.39,East,86,0.0,0.0,95,0.00,,,0.00,oem by Ross Wheeler,2013-04-16 04:05:00,
2013-04-16 00:10:00,40.1,39.0,30.39,East,86,0.0,0.0,95,0.00,,,0.00,oem by Ross Wheeler,2013-04-16 04:10:00,
2013-04-16 00:16:00,40.1,39.0,30.39,East,86,0.0,0.0,95,0.00,,,0.00,oem by Ross Wheeler,2013-04-16 04:16:00,
2013-04-16 00:25:00,40.0,39.0,30.39,East,86,0.0,0.0,95,0.00,,,0.00,oem by Ross Wheeler,2013-04-16 04:25:00,
2013-04-16 00:31:00,39.8,39.0,30.39,East,86,0.0,0.0,95,0.00,,,0.00,oem by Ross Wheeler,2013-04-16 04:31:00,
2013-04-16 00:40:00,40.2,39.0,30.38,East,86,0.0,0.0,96,0.00,,,0.00,oem by Ross Wheeler,2013-04-16 04:40:00,
2013-04-16 00:46:00,40.4,39.0,30.38,East,86,0.0,0.0,96,0.00,,,0.00,oem by Ross Wheeler,2013-04-16 04:46:00,
2013-04-16 00:55:00,40.7,40.0,30.38,East,86,0.0,1.0,96,0.00,,,0.00,oem by Ross Wheeler,2013-04-16 04:55:00,
2013-04-16 01:01:00,40.5,40.0,30.38,East,86,0.0,1.0,96,0.00,,,0.00,oem by Ross Wheeler,2013-04-16 05:01:00,
2013-04-16 01:10:00,40.0,39.0,30.37,East,86,0.0,0.0,96,0.00,,,0.00,oem by Ross Wheeler,2013-04-16 05:10:00,
2013-04-16 01:16:00,39.8,39.0,30.38,East,86,0.0,0.0,96,0.00,,,0.00,oem by Ross Wheeler,2013-04-16 05:16:00,
2013-04-16 01:25:00,39.3,38.0,30.37,East,86,0.0,0.0,96,0.00,,,0.00,oem by Ross Wheeler,2013-04-16 05:25:00,
2013-04-16 01:31:00,39.5,39.0,30.37,East,86,0.0,0.0,96,0.00,,,0.00,oem by Ross Wheeler,2013-04-16 05:31:00,
2013-04-16 01:40:00,39.2,38.0,30.37,East,86,0.0,0.0,96,0.00,,,0.00,oem by Ross Wheeler,2013-04-16 05:40:00,
2013-04-16 01:46:00,39.2,38.0,30.37,East,86,0.0,0.0,96,0.00,,,0.00,oem by Ross Wheeler,2013-04-16 05:46:00,
2013-04-16 01:55:00,39.2,38.0,30.37,East,86,0.0,0.0,96,0.00,,,0.00,oem by Ross Wheeler,2013-04-16 05:55:00,
2013-04-16 02:01:00,38.9,38.0,30.37,East,86,0.0,0.0,96,0.00,,,0.00,oem by Ross Wheeler,2013-04-16 06:01:00,
2013-04-16 02:10:00,38.5,38.0,30.36,East,86,0.0,0.0,96,0.00,,,0.00,oem by Ross Wheeler,2013-04-16 06:10:00,
2013-04-16 02:16:00,38.4,37.0,30.36,East,86,0.0,0.0,96,0.00,,,0.00,oem by Ross Wheeler,2013-04-16 06:16:00,
2013-04-16 02:25:00,38.2,37.0,30.36,East,86,0.0,0.0,96,0.00,,,0.00,oem by Ross Wheeler,2013-04-16 06:25:00,
2013-04-16 02:31:00,38.2,37.0,30.36,East,86,0.0,0.0,96,0.00,,,0.00,oem by Ross Wheeler,2013-04-16 06:31:00,
2013-04-16 02:40:00,38.1,37.0,30.36,East,86,0.0,0.0,96,0.00,,,0.00,oem by Ross Wheeler,2013-04-16 06:40:00,
2013-04-16 02:46:00,38.1,37.0,30.36,East,86,0.0,0.0,96,0.00,,,0.00,oem by Ross Wheeler,2013-04-16 06:46:00,
2013-04-16 02:55:00,37.9,37.0,30.36,East,86,0.0,0.0,96,0.00,,,0.00,oem by Ross Wheeler,2013-04-16 06:55:00,
2013-04-16 03:01:00,37.7,37.0,30.36,East,86,0.0,0.0,96,0.00,,,0.00,oem by Ross Wheeler,2013-04-16 07:01:00,
2013-04-16 03:10:00,37.7,37.0,30.36,East,86,0.0,0.0,96,0.00,,,0.00,oem by Ross Wheeler,2013-04-16 07:10:00,
2013-04-16 03:16:00,37.9,37.0,30.36,East,86,0.0,0.0,96,0.00,,,0.00,oem by Ross Wheeler,2013-04-16 07:16:00,
2013-04-16 03:25:00,38.0,37.0,30.36,East,86,0.0,0.0,96,0.00,,,0.00,oem by Ross Wheeler,2013-04-16 07:25:00,
2013-04-16 03:31:00,37.9,37.0,30.36,East,86,0.0,0.0,96,0.00,,,0.00,oem by Ross Wheeler,2013-04-16 07:31:00,
2013-04-16 03:40:00,37.7,37.0,30.37,East,86,0.0,0.0,96,0.00,,,0.00,oem by Ross Wheeler,2013-04-16 07:40:00,
2013-04-16 03:46:00,37.6,37.0,30.37,East,86,0.0,0.0,96,0.00,,,0.00,oem by Ross Wheeler,2013-04-16 07:46:00,
2013-04-16 03:55:00,37.4,36.0,30.37,East,86,0.0,0.0,96,0.00,,,0.00,oem by Ross Wheeler,2013-04-16 07:55:00,
2013-04-16 04:01:00,37.4,36.0,30.37,East,86,0.0,0.0,96,0.00,,,0.00,oem by Ross Wheeler,2013-04-16 08:01:00,
2013-04-16 04:10:00,37.4,36.0,30.37,East,86,0.0,0.0,96,0.00,,,0.00,oem by Ross Wheeler,2013-04-16 08:10:00,
2013-04-16 04:16:00,37.3,36.0,30.37,East,86,0.0,0.0,96,0.00,,,0.00,oem by Ross Wheeler,2013-04-16 08:16:00,
2013-04-16 04:25:00,38.0,37.0,30.36,East,86,0.0,0.0,97,0.00,,,0.00,oem by Ross Wheeler,2013-04-16 08:25:00,
2013-04-16 04:31:00,38.1,37.0,30.36,East,86,0.0,0.0,97,0.00,,,0.00,oem by Ross Wheeler,2013-04-16 08:31:00,
2013-04-16 04:40:00,37.7,37.0,30.36,East,86,0.0,0.0,96,0.00,,,0.00,oem by Ross Wheeler,2013-04-16 08:40:00,
2013-04-16 04:46:00,37.5,37.0,30.36,East,86,0.0,0.0,96,0.00,,,0.00,oem by Ross Wheeler,2013-04-16 08:46:00,
2013-04-16 04:55:00,38.0,37.0,30.36,East,79,0.0,0.0,96,0.00,,,0.00,oem by Ross Wheeler,2013-04-16 08:55:00,
2013-04-16 05:01:00,38.3,38.0,30.36,East,79,0.0,0.0,97,0.00,,,0.00,oem by Ross Wheeler,2013-04-16 09:01:00,
2013-04-16 05:10:00,39.3,39.0,30.36,East,83,0.0,1.0,97,0.00,,,0.00,oem by Ross Wheeler,2013-04-16 09:10:00,
2013-04-16 05:16:00,39.6,39.0,30.37,ENE,61,0.0,1.0,97,0.00,,,0.00,oem by Ross Wheeler,2013-04-16 09:16:00,
2013-04-16 05:25:00,38.7,38.0,30.36,ENE,61,0.0,0.0,96,0.00,,,0.00,oem by Ross Wheeler,2013-04-16 09:25:00,
2013-04-16 05:31:00,39.1,38.0,30.36,ENE,61,0.0,0.0,97,0.00,,,0.00,oem by Ross Wheeler,2013-04-16 09:31:00,
2013-04-16 05:40:00,39.9,39.0,30.36,East,81,0.0,1.0,97,0.00,,,0.00,oem by Ross Wheeler,2013-04-16 09:40:00,
2013-04-16 05:46:00,39.8,39.0,30.37,East,82,0.0,0.0,97,0.00,,,0.00,oem by Ross Wheeler,2013-04-16 09:46:00,
2013-04-16 05:55:00,39.9,39.0,30.37,East,81,0.0,1.0,97,0.00,,,0.00,oem by Ross Wheeler,2013-04-16 09:55:00,
2013-04-16 06:01:00,39.9,39.0,30.37,East,81,0.0,1.0,96,0.00,,,0.00,oem by Ross Wheeler,2013-04-16 10:01:00,
2013-04-16 06:10:00,40.4,40.0,30.37,ESE,117,0.0,1.0,97,0.00,,,0.00,oem by Ross Wheeler,2013-04-16 10:10:00,
2013-04-16 06:16:00,40.6,40.0,30.37,ENE,72,0.0,1.0,97,0.00,,,0.00,oem by Ross Wheeler,2013-04-16 10:16:00,
2013-04-16 06:25:00,40.7,40.0,30.37,ENE,62,0.0,0.0,96,0.00,,,0.00,oem by Ross Wheeler,2013-04-16 10:25:00,
2013-04-16 06:31:00,40.9,40.0,30.37,ENE,63,0.0,0.0,96,0.00,,,0.00,oem by Ross Wheeler,2013-04-16 10:31:00,
2013-04-16 06:40:00,41.3,40.0,30.37,ENE,78,0.0,1.0,96,0.00,,,0.00,oem by Ross Wheeler,2013-04-16 10:40:00,
2013-04-16 06:46:00,42.1,41.0,30.37,East,79,0.0,1.0,96,0.00,,,0.00,oem by Ross Wheeler,2013-04-16 10:46:00,
2013-04-16 06:55:00,43.6,42.0,30.37,ENE,78,3.0,3.0,94,0.00,,,0.00,oem by Ross Wheeler,2013-04-16 10:55:00,
2013-04-16 07:01:00,44.2,42.0,30.37,East,86,3.0,3.0,93,0.00,,,0.00,oem by Ross Wheeler,2013-04-16 11:01:00,
2013-04-16 07:10:00,45.2,43.0,30.37,SE,134,0.0,3.0,91,0.00,,,0.00,oem by Ross Wheeler,2013-04-16 11:10:00,
2013-04-16 07:16:00,45.5,43.0,30.37,East,84,0.0,3.0,89,0.00,,,0.00,oem by Ross Wheeler,2013-04-16 11:16:00,
2013-04-16 07:25:00,45.9,43.0,30.37,East,86,1.0,3.0,88,0.00,,,0.00,oem by Ross Wheeler,2013-04-16 11:25:00,
2013-04-16 07:31:00,46.0,42.0,30.38,East,89,2.0,3.0,87,0.00,,,0.00,oem by Ross Wheeler,2013-04-16 11:31:00,
2013-04-16 07:40:00,46.7,43.0,30.38,East,82,0.0,2.0,87,0.00,,,0.00,oem by Ross Wheeler,2013-04-16 11:40:00,
2013-04-16 07:46:00,46.9,43.0,30.38,ENE,72,0.0,2.0,87,0.00,,,0.00,oem by Ross Wheeler,2013-04-16 11:46:00,
2013-04-16 07:55:00,47.7,43.0,30.38,SE,134,1.0,1.0,85,0.00,,,0.00,oem by Ross Wheeler,2013-04-16 11:55:00,
2013-04-16 08:01:00,48.1,44.0,30.38,ESE,109,1.0,2.0,85,0.00,,,0.00,oem by Ross Wheeler,2013-04-16 12:01:00,
2013-04-16 08:10:00,48.3,44.0,30.38,SE,134,0.0,3.0,84,0.00,,,0.00,oem by Ross Wheeler,2013-04-16 12:10:00,
2013-04-16 08:16:00,48.6,44.0,30.38,SSE,150,0.0,1.0,84,0.00,,,0.00,oem by Ross Wheeler,2013-04-16 12:16:00,
2013-04-16 08:25:00,48.8,44.0,30.38,SE,129,0.0,4.0,84,0.00,,,0.00,oem by Ross Wheeler,2013-04-16 12:25:00,
2013-04-16 08:31:00,48.8,44.0,30.38,ESE,113,2.0,3.0,84,0.00,,,0.00,oem by Ross Wheeler,2013-04-16 12:31:00,
2013-04-16 08:40:00,49.3,44.0,30.38,SSE,150,0.0,2.0,83,0.00,,,0.00,oem by Ross Wheeler,2013-04-16 12:40:00,
2013-04-16 08:46:00,49.5,45.0,30.38,East,81,0.0,2.0,84,0.00,,,0.00,oem by Ross Wheeler,2013-04-16 12:46:00,
2013-04-16 08:55:00,48.5,44.0,30.37,ENE,78,2.0,3.0,83,0.00,,,0.00,oem by Ross Wheeler,2013-04-16 12:55:00,
2013-04-16 09:01:00,48.4,44.0,30.38,SE,134,0.0,3.0,85,0.00,,,0.00,oem by Ross Wheeler,2013-04-16 13:01:00,
2013-04-16 09:10:00,49.9,45.0,30.38,ENE,73,2.0,2.0,84,0.00,,,0.00,oem by Ross Wheeler,2013-04-16 13:10:00,
2013-04-16 09:16:00,50.1,45.0,30.37,SSE,160,2.0,3.0,82,0.00,,,0.00,oem by Ross Wheeler,2013-04-16 13:16:00,
2013-04-16 09:25:00,49.7,44.0,30.37,SSE,157,0.0,3.0,81,0.00,,,0.00,oem by Ross Wheeler,2013-04-16 13:25:00,
2013-04-16 09:31:00,49.5,44.0,30.37,SSE,153,0.0,3.0,82,0.00,,,0.00,oem by Ross Wheeler,2013-04-16 13:31:00,
2013-04-16 09:40:00,49.5,45.0,30.37,SE,136,1.0,2.0,83,0.00,,,0.00,oem by Ross Wheeler,2013-04-16 13:40:00,
2013-04-16 09:46:00,49.7,45.0,30.37,SSE,151,0.0,2.0,83,0.00,,,0.00,oem by Ross Wheeler,2013-04-16 13:46:00,
2013-04-16 09:55:00,50.0,44.0,30.38,ESE,108,0.0,2.0,81,0.00,,,0.00,oem by Ross Wheeler,2013-04-16 13:55:00,
2013-04-16 10:01:00,50.1,45.0,30.38,SE,141,0.0,1.0,81,0.00,,,0.00,oem by Ross Wheeler,2013-04-16 14:01:00,
2013-04-16 10:10:00,50.6,45.0,30.37,SSE,163,0.0,2.0,81,0.00,,,0.00,oem by Ross Wheeler,2013-04-16 14:10:00,
2013-04-16 10:16:00,50.9,45.0,30.37,SSE,158,1.0,2.0,80,0.00,,,0.00,oem by Ross Wheeler,2013-04-16 14:16:00,
2013-04-16 10:25:00,50.9,45.0,30.38,South,187,1.0,3.0,80,0.00,,,0.00,oem by Ross Wheeler,2013-04-16 14:25:00,
2013-04-16 10:31:00,50.9,45.0,30.37,SSE,163,0.0,3.0,80,0.00,,,0.00,oem by Ross Wheeler,2013-04-16 14:31:00,
2013-04-16 10:40:00,51.1,45.0,30.37,SE,140,2.0,2.0,80,0.00,,,0.00,oem by Ross Wheeler,2013-04-16 14:40:00,
2013-04-16 10:46:00,51.2,45.0,30.38,ENE,71,2.0,3.0,79,0.00,,,0.00,oem by Ross Wheeler,2013-04-16 14:46:00,
2013-04-16 10:55:00,50.7,45.0,30.37,SE,131,1.0,4.0,81,0.00,,,0.00,oem by Ross Wheeler,2013-04-16 14:55:00,
2013-04-16 11:01:00,50.9,45.0,30.38,SE,136,0.0,3.0,80,0.00,,,0.00,oem by Ross Wheeler,2013-04-16 15:01:00,
2013-04-16 11:10:00,51.5,46.0,30.37,SE,132,0.0,3.0,80,0.00,,,0.00,oem by Ross Wheeler,2013-04-16 15:10:00,
2013-04-16 11:16:00,51.9,46.0,30.37,East,100,0.0,3.0,79,0.00,,,0.00,oem by Ross Wheeler,2013-04-16 15:16:00,
2013-04-16 11:31:00,52.2,46.0,30.35,SE,135,0.0,3.0,78,0.00,,,0.00,oem by Ross Wheeler,2013-04-16 15:31:00,
2013-04-16 11:40:00,51.7,45.0,30.34,SE,139,2.0,5.0,79,0.00,,,0.00,oem by Ross Wheeler,2013-04-16 15:40:00,
2013-04-16 11:46:00,51.7,45.0,30.35,SSE,154,2.0,4.0,79,0.00,,,0.00,oem by Ross Wheeler,2013-04-16 15:46:00,
2013-04-16 11:55:00,52.4,46.0,30.34,South,177,1.0,3.0,78,0.00,,,0.00,oem by Ross Wheeler,2013-04-16 15:55:00,
2013-04-16 12:01:00,52.3,45.0,30.34,SSE,166,3.0,4.0,77,0.00,,,0.00,oem by Ross Wheeler,2013-04-16 16:01:00,
2013-04-16 12:10:00,52.1,45.0,30.33,SSE,164,2.0,4.0,78,0.00,,,0.00,oem by Ross Wheeler,2013-04-16 16:10:00,
2013-04-16 12:16:00,52.8,46.0,30.33,SSE,164,2.0,4.0,78,0.00,,,0.00,oem by Ross Wheeler,2013-04-16 16:16:00,
2013-04-16 12:25:00,53.0,46.0,30.33,SSE,148,3.0,5.0,77,0.00,,,0.00,oem by Ross Wheeler,2013-04-16 16:25:00,
2013-04-16 12:31:00,53.4,46.0,30.33,SE,134,4.0,5.0,77,0.00,,,0.00,oem by Ross Wheeler,2013-04-16 16:31:00,
2013-04-16 12:40:00,53.9,47.0,30.33,SSE,164,3.0,5.0,77,0.00,,,0.00,oem by Ross Wheeler,2013-04-16 16:40:00,
2013-04-16 12:46:00,53.7,46.0,30.32,SSE,151,2.0,5.0,75,0.00,,,0.00,oem by Ross Wheeler,2013-04-16 16:46:00,
2013-04-16 12:55:00,53.6,47.0,30.32,SSE,160,1.0,5.0,77,0.00,,,0.00,oem by Ross Wheeler,2013-04-16 16:55:00,
2013-04-16 13:01:00,53.9,47.0,30.31,SE,136,2.0,4.0,77,0.00,,,0.00,oem by Ross Wheeler,2013-04-16 17:01:00,
2013-04-16 13:10:00,54.1,47.0,30.30,SSE,153,0.0,4.0,76,0.00,,,0.00,oem by Ross Wheeler,2013-04-16 17:10:00,
2013-04-16 13:16:00,54.4,47.0,30.30,SE,124,1.0,3.0,75,0.00,,,0.00,oem by Ross Wheeler,2013-04-16 17:16:00,
2013-04-16 13:25:00,55.0,47.0,30.31,SE,134,0.0,3.0,74,0.00,,,0.00,oem by Ross Wheeler,2013-04-16 17:25:00,
2013-04-16 13:31:00,55.2,47.0,30.31,SSE,148,1.0,4.0,73,0.00,,,0.00,oem by Ross Wheeler,2013-04-16 17:31:00,
2013-04-16 13:40:00,54.3,47.0,30.31,SE,139,2.0,4.0,75,0.00,,,0.00,oem by Ross Wheeler,2013-04-16 17:40:00,
2013-04-16 13:46:00,54.7,47.0,30.30,SSE,155,2.0,4.0,75,0.00,,,0.00,oem by Ross Wheeler,2013-04-16 17:46:00,
2013-04-16 13:55:00,54.6,46.0,30.30,SE,131,0.0,4.0,74,0.00,,,0.00,oem by Ross Wheeler,2013-04-16 17:55:00,
2013-04-16 14:01:00,54.7,47.0,30.30,South,170,1.0,4.0,75,0.00,,,0.00,oem by Ross Wheeler,2013-04-16 18:01:00,
2013-04-16 14:10:00,55.8,47.0,30.30,ESE,120,2.0,4.0,72,0.00,,,0.00,oem by Ross Wheeler,2013-04-16 18:10:00,
2013-04-16 14:16:00,55.6,47.0,30.31,SSE,163,2.0,5.0,73,0.00,,,0.00,oem by Ross Wheeler,2013-04-16 18:16:00,
2013-04-16 14:25:00,55.3,46.0,30.29,SSE,149,2.0,6.0,72,0.00,,,0.00,oem by Ross Wheeler,2013-04-16 18:25:00,
2013-04-16 14:31:00,55.3,47.0,30.29,SE,135,2.0,6.0,73,0.00,,,0.00,oem by Ross Wheeler,2013-04-16 18:31:00,
2013-04-16 14:40:00,55.3,47.0,30.29,SE,138,2.0,4.0,73,0.00,,,0.00,oem by Ross Wheeler,2013-04-16 18:40:00,
2013-04-16 14:46:00,55.2,47.0,30.29,SSE,151,2.0,6.0,74,0.00,,,0.00,oem by Ross Wheeler,2013-04-16 18:46:00,
2013-04-16 14:55:00,55.4,47.0,30.29,SE,129,1.0,5.0,74,0.00,,,0.00,oem by Ross Wheeler,2013-04-16 18:55:00,
2013-04-16 15:01:00,55.6,47.0,30.28,SE,145,2.0,4.0,72,0.00,,,0.00,oem by Ross Wheeler,2013-04-16 19:01:00,
2013-04-16 15:10:00,55.4,48.0,30.29,ESE,121,0.0,5.0,75,0.00,,,0.00,oem by Ross Wheeler,2013-04-16 19:10:00,
2013-04-16 15:16:00,56.1,48.0,30.28,SE,134,0.0,3.0,73,0.00,,,0.00,oem by Ross Wheeler,2013-04-16 19:16:00,
2013-04-16 15:25:00,57.0,48.0,30.28,SE,143,1.0,2.0,72,0.00,,,0.00,oem by Ross Wheeler,2013-04-16 19:25:00,
2013-04-16 15:31:00,57.3,48.0,30.28,SSE,148,1.0,2.0,71,0.00,,,0.00,oem by Ross Wheeler,2013-04-16 19:31:00,
2013-04-16 15:40:00,57.0,48.0,30.28,South,169,2.0,3.0,71,0.00,,,0.00,oem by Ross Wheeler,2013-04-16 19:40:00,
2013-04-16 15:46:00,55.9,47.0,30.28,SE,132,0.0,4.0,72,0.00,,,0.00,oem by Ross Wheeler,2013-04-16 19:46:00,
2013-04-16 15:55:00,54.4,47.0,30.26,SSE,149,2.0,3.0,76,0.00,,,0.00,oem by Ross Wheeler,2013-04-16 19:55:00,
2013-04-16 16:01:00,54.3,47.0,30.26,SE,135,0.0,2.0,77,0.00,,,0.00,oem by Ross Wheeler,2013-04-16 20:01:00,
2013-04-16 16:10:00,54.2,47.0,30.25,SE,141,0.0,3.0,77,0.00,,,0.00,oem by Ross Wheeler,2013-04-16 20:10:00,
2013-04-16 16:16:00,54.9,48.0,30.25,SSW,197,0.0,2.0,77,0.00,,,0.00,oem by Ross Wheeler,2013-04-16 20:16:00,
2013-04-16 16:25:00,55.0,48.0,30.24,SE,145,0.0,2.0,76,0.00,,,0.00,oem by Ross Wheeler,2013-04-16 20:25:00,
2013-04-16 16:31:00,55.1,48.0,30.24,SE,140,0.0,2.0,77,0.00,,,0.00,oem by Ross Wheeler,2013-04-16 20:31:00,
2013-04-16 16:40:00,54.1,47.0,30.24,SSE,147,1.0,2.0,78,0.00,,,0.00,oem by Ross Wheeler,2013-04-16 20:40:00,
2013-04-16 16:46:00,54.0,48.0,30.23,SE,136,2.0,2.0,79,0.00,,,0.00,oem by Ross Wheeler,2013-04-16 20:46:00,
2013-04-16 16:55:00,52.9,47.0,30.23,SSE,153,0.0,3.0,80,0.00,,,0.00,oem by Ross Wheeler,2013-04-16 20:55:00,
2013-04-16 17:01:00,52.7,47.0,30.23,SSE,149,0.0,2.0,80,0.00,,,0.00,oem by Ross Wheeler,2013-04-16 21:01:00,
2013-04-16 17:10:00,52.1,47.0,30.23,SSE,160,0.0,2.0,82,0.00,,,0.00,oem by Ross Wheeler,2013-04-16 21:10:00,
2013-04-16 17:16:00,52.2,47.0,30.23,SSW,193,0.0,1.0,83,0.00,,,0.00,oem by Ross Wheeler,2013-04-16 21:16:00,
2013-04-16 17:25:00,52.7,48.0,30.23,SE,146,0.0,1.0,83,0.00,,,0.00,oem by Ross Wheeler,2013-04-16 21:25:00,
2013-04-16 17:31:00,52.6,48.0,30.22,SSE,163,0.0,2.0,83,0.00,,,0.00,oem by Ross Wheeler,2013-04-16 21:31:00,
2013-04-16 17:40:00,52.8,48.0,30.22,South,191,1.0,2.0,84,0.00,,,0.00,oem by Ross Wheeler,2013-04-16 21:40:00,
2013-04-16 17:46:00,53.0,48.0,30.21,SE,146,1.0,3.0,84,0.00,,,0.00,oem by Ross Wheeler,2013-04-16 21:46:00,
2013-04-16 17:55:00,53.1,48.0,30.20,SSE,150,2.0,6.0,83,0.00,,,0.00,oem by Ross Wheeler,2013-04-16 21:55:00,
2013-04-16 18:01:00,52.6,48.0,30.19,SE,137,0.0,5.0,84,0.00,,,0.00,oem by Ross Wheeler,2013-04-16 22:01:00,
2013-04-16 18:10:00,52.3,48.0,30.19,South,190,1.0,6.0,85,0.00,,,0.00,oem by Ross Wheeler,2013-04-16 22:10:00,
2013-04-16 18:16:00,52.3,48.0,30.18,SSE,160,0.0,7.0,86,0.00,,,0.00,oem by Ross Wheeler,2013-04-16 22:16:00,
2013-04-16 18:25:00,52.0,48.0,30.17,SE,142,1.0,5.0,86,0.00,,,0.00,oem by Ross Wheeler,2013-04-16 22:25:00,
2013-04-16 18:31:00,52.0,48.0,30.17,West,263,0.0,5.0,86,0.00,,,0.00,oem by Ross Wheeler,2013-04-16 22:31:00,
2013-04-16 18:40:00,52.2,48.0,30.16,SW,225,1.0,5.0,86,0.00,,,0.00,oem by Ross Wheeler,2013-04-16 22:40:00,
2013-04-16 18:46:00,52.1,48.0,30.16,SSE,151,0.0,5.0,86,0.00,,,0.00,oem by Ross Wheeler,2013-04-16 22:46:00,
2013-04-16 18:55:00,51.5,48.0,30.15,SSW,212,0.0,4.0,87,0.00,,,0.00,oem by Ross Wheeler,2013-04-16 22:55:00,
2013-04-16 19:01:00,51.3,48.0,30.15,SSE,150,1.0,4.0,88,0.00,,,0.00,oem by Ross Wheeler,2013-04-16 23:01:00,
2013-04-16 19:10:00,51.1,48.0,30.15,South,187,0.0,3.0,89,0.00,,,0.00,oem by Ross Wheeler,2013-04-16 23:10:00,
2013-04-16 19:16:00,51.1,48.0,30.15,SW,232,3.0,8.0,89,0.00,,,0.00,oem by Ross Wheeler,2013-04-16 23:16:00,
2013-04-16 19:25:00,50.9,48.0,30.15,West,260,1.0,4.0,89,0.00,,,0.00,oem by Ross Wheeler,2013-04-16 23:25:00,
2013-04-16 19:31:00,50.6,48.0,30.15,WSW,256,1.0,3.0,89,0.00,,,0.00,oem by Ross Wheeler,2013-04-16 23:31:00,
2013-04-16 19:40:00,50.5,48.0,30.15,SSW,211,0.0,4.0,90,0.00,,,0.00,oem by Ross Wheeler,2013-04-16 23:40:00,
2013-04-16 19:46:00,50.5,48.0,30.15,WNW,303,1.0,6.0,90,0.00,,,0.00,oem by Ross Wheeler,2013-04-16 23:46:00,
2013-04-16 19:55:00,50.3,48.0,30.14,WSW,242,1.0,5.0,90,0.00,,,0.00,oem by Ross Wheeler,2013-04-16 23:55:00,
2013-04-16 20:01:00,50.3,48.0,30.14,West,280,2.0,3.0,90,0.00,,,0.00,oem by Ross Wheeler,2013-04-17 00:01:00,
2013-04-16 20:10:00,50.4,48.0,30.13,SE,139,0.0,6.0,90,0.00,,,0.00,oem by Ross Wheeler,2013-04-17 00:10:00,
2013-04-16 20:16:00,50.3,48.0,30.13,West,267,3.0,6.0,90,0.00,,,0.00,oem by Ross Wheeler,2013-04-17 00:16:00,
2013-04-16 20:25:00,50.4,48.0,30.14,SSW,203,2.0,7.0,90,0.00,,,0.00,oem by Ross Wheeler,2013-04-17 00:25:00,
2013-04-16 20:31:00,50.5,47.0,30.15,WSW,254,0.0,7.0,89,0.00,,,0.00,oem by Ross Wheeler,2013-04-17 00:31:00,
2013-04-16 20:40:00,50.4,47.0,30.16,West,263,4.0,5.0,89,0.00,,,0.00,oem by Ross Wheeler,2013-04-17 00:40:00,
2013-04-16 20:46:00,50.6,48.0,30.16,SSW,207,0.0,5.0,90,0.00,,,0.00,oem by Ross Wheeler,2013-04-17 00:46:00,
2013-04-16 20:55:00,51.3,48.0,30.16,SSW,201,2.0,6.0,89,0.00,,,0.00,oem by Ross Wheeler,2013-04-17 00:55:00,
2013-04-16 21:01:00,51.4,48.0,30.17,SW,225,0.0,6.0,89,0.00,,,0.00,oem by Ross Wheeler,2013-04-17 01:01:00,
2013-04-16 21:10:00,51.7,49.0,30.17,SW,217,0.0,6.0,89,0.00,,,0.00,oem by Ross Wheeler,2013-04-17 01:10:00,
2013-04-16 21:16:00,51.7,48.0,30.17,WSW,253,1.0,6.0,88,0.00,,,0.00,oem by Ross Wheeler,2013-04-17 01:16:00,
2013-04-16 21:25:00,51.8,48.0,30.17,WSW,257,1.0,8.0,88,0.00,,,0.00,oem by Ross Wheeler,2013-04-17 01:25:00,
2013-04-16 21:31:00,52.0,49.0,30.17,WSW,253,0.0,4.0,88,0.00,,,0.00,oem by Ross Wheeler,2013-04-17 01:31:00,
2013-04-16 21:40:00,52.8,49.0,30.16,SW,232,2.0,5.0,87,0.00,,,0.00,oem by Ross Wheeler,2013-04-17 01:40:00,
2013-04-16 21:46:00,52.8,49.0,30.16,SW,226,0.0,5.0,87,0.00,,,0.00,oem by Ross Wheeler,2013-04-17 01:46:00,
2013-04-16 21:55:00,52.8,49.0,30.17,West,269,1.0,10.0,86,0.00,,,0.00,oem by Ross Wheeler,2013-04-17 01:55:00,
2013-04-16 22:01:00,52.9,49.0,30.17,SW,226,6.0,10.0,86,0.00,,,0.00,oem by Ross Wheeler,2013-04-17 02:01:00,
2013-04-16 22:10:00,53.1,49.0,30.16,West,264,1.0,10.0,85,0.00,,,0.00,oem by Ross Wheeler,2013-04-17 02:10:00,
2013-04-16 22:16:00,52.5,48.0,30.16,SW,228,1.0,8.0,85,0.00,,,0.00,oem by Ross Wheeler,2013-04-17 02:16:00,
2013-04-16 22:25:00,52.1,48.0,30.15,SW,214,1.0,6.0,87,0.00,,,0.00,oem by Ross Wheeler,2013-04-17 02:25:00,
2013-04-16 22:31:00,52.1,48.0,30.15,South,174,3.0,5.0,87,0.00,,,0.00,oem by Ross Wheeler,2013-04-17 02:31:00,
2013-04-16 22:40:00,52.0,48.0,30.14,SW,236,3.0,6.0,86,0.00,,,0.00,oem by Ross Wheeler,2013-04-17 02:40:00,
2013-04-16 22:46:00,51.8,48.0,30.14,SSW,198,1.0,5.0,86,0.00,,,0.00,oem by Ross Wheeler,2013-04-17 02:46:00,
2013-04-16 22:55:00,51.9,48.0,30.14,SSE,149,0.0,4.0,87,0.00,,,0.00,oem by Ross Wheeler,2013-04-17 02:55:00,
2013-04-16 23:01:00,51.8,48.0,30.14,West,267,0.0,5.0,87,0.00,,,0.00,oem by Ross Wheeler,2013-04-17 03:01:00,
2013-04-16 23:10:00,51.7,48.0,30.13,SW,224,1.0,5.0,88,0.00,,,0.00,oem by Ross Wheeler,2013-04-17 03:10:00,
2013-04-16 23:16:00,51.6,48.0,30.14,SW,229,2.0,5.0,88,0.00,,,0.00,oem by Ross Wheeler,2013-04-17 03:16:00,
2013-04-16 23:25:00,52.1,49.0,30.14,South,179,0.0,8.0,88,0.00,,,0.00,oem by Ross Wheeler,2013-04-17 03:25:00,
2013-04-16 23:31:00,52.5,49.0,30.14,SSW,203,1.0,7.0,87,0.00,,,0.00,oem by Ross Wheeler,2013-04-17 03:31:00,
2013-04-16 23:40:00,52.4,49.0,30.14,West,272,3.0,8.0,87,0.00,,,0.00,oem by Ross Wheeler,2013-04-17 03:40:00,
2013-04-16 23:46:00,52.4,49.0,30.13,South,169,1.0,8.0,87,0.00,,,0.00,oem by Ross Wheeler,2013-04-17 03:46:00,
2013-04-16 23:55:00,52.5,49.0,30.13,WNW,290,2.0,8.0,87,0.00,,,0.00,oem by Ross Wheeler,2013-04-17 03:55:00,